Hourly Weather Roundup
Issued by NWS Central Illinois

Home | Current Version | Previous Version | Text Only | Print | Product List | Glossary On
Versions: 1 2 3 4 5 6 7 8 9 10 11 12 13 14 15 16 17 18 19 20 21 22 23 24 25 26 27 28 29 30 31 32 33 34 35 36 37 38 39 40 41 42 43 44 45 46 47 48 49 50
000
NZUS43 KILX 290810
HWRILX

AREA WEATHER ROUNDUP
NATIONAL WEATHER SERVICE, LINCOLN IL
300 AM CDT FRI AUG 29 2014


CITY           SKY/WX    TMP DP  RH WIND       PRES   REMARKS
BLOOMINGTON    MOCLDY    69  67  93 SE7       29.99F
CHAMPAIGN      CLOUDY    71  69  93 E5        30.00F
DECATUR        MOCLDY    71  69  93 E5        29.98F
FLORA          MOCLDY    73  72  96 CALM      29.99S FOG
GALESBURG      MOCLDY    69  67  95 SE5       29.94F
JACKSONVILLE   PTCLDY    72  70  94 SE8       29.96F
LACON          CLOUDY    69  68  94 CALM      29.95S
LAWRENCEVILLE  MOCLDY    74  72  93 CALM      29.99F FOG
LITCHFIELD     CLOUDY    71  69  93 SE6       29.98S
$$


CITY           SKY/WX    TMP DP  RH WIND       PRES   REMARKS
LINCOLN        MOCLDY    71  69  93 CALM      29.94S
MACOMB         PTCLDY    68  68  98 SE6       29.97S
MATTOON        MOCLDY    70  69  97 E3        29.99F
MT CARMEL AP   MOCLDY    73  72  94 CALM      29.99S FOG
OLNEY-NOBLE AP CLOUDY    72  72 100 CALM      29.99S FOG
PARIS          CLOUDY    70  69  96 CALM      30.02R
PEORIA         MOCLDY    72  68  87 S5        29.96F
PONTIAC        CLOUDY    70  70 100 SE3       29.97F FOG
RANTOUL        CLOUDY    72  68  87 SE3       30.00S
ROBINSON       MOCLDY    73  73  98 SE3       30.00F FOG
SPRINGFIELD    MOCLDY    71  69  93 SE6       29.96F
TAYLORVILLE    MOCLDY    70  68  94 SE3       29.98S
$$

...REGIONAL REPORTS...


CITY           SKY/WX    TMP DP  RH WIND       PRES   REMARKS
CHICAGO O`HARE CLOUDY    71  63  75 S8        29.97F
KANKAKEE       CLOUDY    70  67  90 SE9       29.99F
MOLINE         MOCLDY    71  67  87 SE3       29.93F
MOUNT VERNON   CLOUDY    73  68  83 CALM      29.99S
PITTSFIELD     MOCLDY    72  69  89 SE6       29.96S
QUINCY         PTCLDY    72  69  90 SE8       29.94S
ROCKFORD       MOCLDY    67  65  93 S7        29.97F FOG
$$


CITY           SKY/WX    TMP DP  RH WIND       PRES   REMARKS
BURLINGTON     PTCLDY    71  69  93 S8        29.92F
CEDAR RAPIDS   CLEAR     68  68 100 S7        29.91F
DES MOINES     CLOUDY    69  66  90 SE10      29.87F
KIRKSVILLE     CLEAR     72  70  93 SE9       29.91F FOG
OTTUMWA        PTCLDY    69  67  93 SE8       29.89F
ST LOUIS       PTCLDY    76  71  85 SE8       29.97S
$$


CITY           SKY/WX    TMP DP  RH WIND       PRES   REMARKS
TERRE HAUTE    MOCLDY    72  68  87 SE3       30.00F
EVANSVILLE     CLEAR     73  71  93 N3        29.99F
INDIANAPOLIS   CLOUDY    70  61  73 SE8       30.03
LAFAYETTE      CLOUDY    68  65  90 E7        30.01S
MADISON        PTCLDY    65  61  87 SE7       29.95F
MILWAUKEE      PTCLDY    69  65  86 SE8       29.97F
$$




USA.gov is the U.S. government's official web portal to all federal, state and local government web resources and services.